Regional Weather Roundup
Issued by NWS Sterling, VA

Home | Current Version | Previous Version | Text Only | Print | Product List | Glossary Off
Versions: 1 2 3 4 5 6 7 8 9 10 11 12 13 14 15 16 17 18 19 20 21 22 23 24 25 26 27 28 29 30 31 32 33 34 35 36 37 38 39 40 41 42 43 44 45 46 47 48 49 50

000
ASUS41 KLWX 191010
RWRLWX

REGIONAL WEATHER ROUNDUP
NATIONAL WEATHER SERVICE BALTIMORE MD/WASHINGTON DC
600 AM EDT FRI SEP 19 2014

Note: "FAIR" indicates few or no clouds below 12,000 feet
with no significant weather and/or obstructions to visibility.
 TC=TEMPERATURE CELSIUS

 * =Non NWS site. Station does not report precipitation (e.g. rain,
    snow, etc.), thunder, or fog.

DCZ001-MDZ009-015-VAZ040>042-051-053>054-191100-
WASHINGTON METRO

CITY           SKY/WX    TMP DP  RH WIND       PRES   REMARKS
WASHINGTON NAT MOCLDY    62  52  69 NE10      30.19R
DULLES         MOCLDY    56  49  77 N7        30.19R
ANDREWS AFB    CLEAR     56  55  99 NE7       30.18R
QUANTICO       MOCLDY    60  57  89 NW6       30.19R
COLLEGE PARK*  PTCLDY    55  54  94 CALM      30.18S
LEESBURG*      PTCLDY    55  52  88 NE8       30.21R
MANASSAS*      MOCLDY    57  54  88 N6        30.19R
GAITHERSBURG*  MOCLDY    54  48  82 CALM      30.24R

$$

MDZ006>007-011-014-191100-
BALTIMORE METRO

CITY           SKY/WX    TMP DP  RH WIND       PRES   REMARKS
BWI AIRPORT    PTCLDY    56  50  80 NE6       30.19R
MD SCIENCE CTR   N/A     60  49  66 MISG      30.20R
MARTIN STATE   PTCLDY    57  54  88 CALM      30.21R
ANNAPOLIS      PTCLDY    62  54  74 NE9       30.18R
FORT MEADE*    PTCLDY    52  50  93 NE3       30.21R

$$

MDZ012-015-019>023-191100-
MARYLAND EASTERN SHORE

CITY           SKY/WX    TMP DP  RH WIND       PRES   REMARKS
OCEAN CITY     MOCLDY    60  56  86 N5        30.16R
SALISBURY      CLEAR     59  54  83 CALM      30.17R
BAY BRIDGE AP*   N/A     59  52  77 NE8       30.18S
CAMBRIDGE*     CLEAR     55  54  94 NE6       30.16R
EASTON*        CLEAR     58  58 100 NE7       30.21R

$$

MDZ017>025-191100-
SOUTHERN MARYLAND

CITY           SKY/WX    TMP DP  RH WIND       PRES   REMARKS
PATUXENT RIVER PTCLDY    59  57  93 W5        30.16R
ST INIGOES     PTCLDY    57  53  86 CALM      30.16R
LEONARDTOWN*   CLOUDY    55  54  94 CALM      30.18R VSB 1/4

$$

MDZ003>005-191100-
NORTH CENTRAL MARYLAND

CITY           SKY/WX    TMP DP  RH WIND       PRES   REMARKS
FREDERICK*     MOCLDY    54  52  94 N7        30.24R
HAGERSTOWN APT PTCLDY    53  49  86 N8        30.21R
WESTMINSTER*   PTCLDY    52  46  82 CALM      30.22R

$$

MDZ501>502-191100-
WESTERN MARYLAND

CITY           SKY/WX    TMP DP  RH WIND       PRES   REMARKS
OAKLAND*       PTCLDY    46  45  93 E9        30.22R
CUMBERLAND*    CLEAR     48  45  87 CALM      30.26R

$$

VAZ025>031-191100-
SHENANDOAH VALLEY

CITY           SKY/WX    TMP DP  RH WIND       PRES   REMARKS
WINCHESTER*    CLOUDY    54  48  82 CALM      30.21R
STAUNTON*      CLOUDY    60  50  70 CALM      30.20R

$$

WVZ021-048>050-054>055-191100-
EASTERN WEST VIRGINIA PANHANDLE

CITY           SKY/WX    TMP DP  RH WIND       PRES   REMARKS
MARTINSBURG    CLEAR     54  48  80 N6        30.21R
PETERSBURG*    CLOUDY    53  50  91 CALM      30.22R

$$

VAZ036>039-050-191100-
CENTRAL FOOTHILLS

CITY           SKY/WX    TMP DP  RH WIND       PRES   REMARKS
CHARLOTTESVILL CLOUDY    61  56  83 NE3       30.17R
ORANGE*        CLOUDY    59  54  82 CALM      30.19R

$$

VAZ055>057-191100-
NORTH AND CENTRAL PIEDMONT

CITY           SKY/WX    TMP DP  RH WIND       PRES   REMARKS
FREDERICKSBRG* FOG       62  62 100 N3        30.16R VSB 3/4
STAFFORD*      CLOUDY    57  57 100 CALM      30.21R FOG

$$

NCZ024-NYZ072-PAZ021-071-VAZ022-071-191100-
OTHER REGIONAL OBSERVATIONS

CITY           SKY/WX    TMP DP  RH WIND       PRES   REMARKS
NEW YORK CITY  MOCLDY    57  48  72 E10       30.26R
PHILADELPHIA   PTCLDY    59  49  69 NE12      30.21R
PITTSBURGH     PTCLDY    50  48  93 CALM      30.20S
ROANOKE        CLOUDY    64  61  90 CALM      30.17R
RICHMOND       CLOUDY    63  58  83 CALM      30.16R
RALEIGH        MOCLDY    65  59  81 CALM      30.13R

$$

ANZ530>537-191100-
MARINE OBSERVATIONS

STATION/POSITION TIME  TEMP    WIND        PRES
                       AIR SEA DIR/SP/G
                 (UTC) (F)     (DEG/KT/KT) (MB)
THOMAS PT LIGHT  1000   63 73   40/ 15/ 17 1022.8R
BALT KEY BRIDGE  1000   59      20/  7/  9 1022.0R
COVE POINT       1000   68      20/  9/ 11 1021.1R
LEWISETTA        1000   65 73  310/  5/  5 1020.8R
SOLOMONS ISLAND  1000      76                N/A
PINEY POINT      1000           40/  4/  4   N/A

$$




USA.gov is the U.S. government's official web portal to all federal, state and local government web resources and services.